Time,TemperatureF,DewpointF,PressureIn,WindDirection,WindDirectionDegrees,WindSpeedMPH,WindSpeedGustMPH,Humidity,HourlyPrecipIn,Conditions,Clouds,dailyrainin,SoftwareType,DateUTC
2013-04-27 00:01:00,43.6,33.8,29.77,WSW,248,1.1,4.5,68,0.00,,,0.00,WUHU216HW,2013-04-26 23:01:00,
2013-04-27 00:06:00,43.6,33.8,29.77,NW,315,0.7,2.2,68,0.00,,,0.00,WUHU216HW,2013-04-26 23:06:00,
2013-04-27 00:11:00,43.4,33.9,29.76,NNW,338,0.2,1.3,69,0.00,,,0.00,WUHU216HW,2013-04-26 23:11:00,
2013-04-27 00:16:00,43.2,34.2,29.76,WSW,248,0.7,1.8,70,0.00,,,0.00,WUHU216HW,2013-04-26 23:16:00,
2013-04-27 00:21:00,43.0,34.3,29.76,West,270,0.9,1.8,71,0.00,,,0.00,WUHU216HW,2013-04-26 23:21:00,
2013-04-27 00:26:00,42.8,33.8,29.76,NW,315,0.0,1.3,70,0.00,,,0.00,WUHU216HW,2013-04-26 23:26:00,
2013-04-27 00:31:00,42.8,34.2,29.76,WNW,293,0.4,1.3,71,0.00,,,0.00,WUHU216HW,2013-04-26 23:31:00,
2013-04-27 00:36:00,42.7,34.0,29.76,WNW,293,0.4,0.9,71,0.00,,,0.00,WUHU216HW,2013-04-26 23:36:00,
2013-04-27 00:41:00,42.7,34.0,29.76,WNW,293,0.2,0.9,71,0.00,,,0.00,WUHU216HW,2013-04-26 23:41:00,
2013-04-27 00:46:00,42.5,34.1,29.76,West,270,0.4,0.7,72,0.00,,,0.00,WUHU216HW,2013-04-26 23:46:00,
2013-04-27 00:51:00,42.3,33.9,29.76,West,270,0.0,0.7,72,0.00,,,0.00,WUHU216HW,2013-04-26 23:51:00,
2013-04-27 00:54:00,42.3,34.3,29.76,WSW,248,0.7,1.6,73,0.00,,,0.00,WUHU216HW,2013-04-26 23:54:00,
2013-04-27 01:05:00,42.1,34.4,29.76,WSW,248,0.9,1.1,74,0.00,,,0.00,WUHU216HW,2013-04-27 00:05:00,
2013-04-27 01:10:00,41.9,34.2,29.76,West,270,0.4,1.8,74,0.00,,,0.00,WUHU216HW,2013-04-27 00:10:00,
2013-04-27 01:15:00,41.9,34.6,29.76,West,270,0.0,1.8,75,0.00,,,0.00,WUHU216HW,2013-04-27 00:15:00,
2013-04-27 01:20:00,41.8,34.0,29.76,South,180,0.0,0.9,74,0.00,,,0.00,WUHU216HW,2013-04-27 00:20:00,
2013-04-27 01:25:00,41.8,34.0,29.76,South,180,0.2,0.7,74,0.00,,,0.00,WUHU216HW,2013-04-27 00:25:00,
2013-04-27 01:30:00,41.6,33.6,29.76,South,180,0.0,0.4,73,0.00,,,0.00,WUHU216HW,2013-04-27 00:30:00,
2013-04-27 01:35:00,41.4,33.4,29.76,SSW,203,0.0,0.4,73,0.00,,,0.00,WUHU216HW,2013-04-27 00:35:00,
2013-04-27 01:40:00,41.2,33.2,29.76,SSW,203,0.2,0.4,73,0.00,,,0.00,WUHU216HW,2013-04-27 00:40:00,
2013-04-27 01:45:00,41.0,33.3,29.76,SSW,203,0.0,0.4,74,0.00,,,0.00,WUHU216HW,2013-04-27 00:45:00,
2013-04-27 01:50:00,40.7,33.3,29.76,WSW,248,0.4,0.7,75,0.00,,,0.00,WUHU216HW,2013-04-27 00:50:00,
2013-04-27 01:55:00,40.7,34.3,29.76,WSW,248,0.0,0.7,78,0.00,,,0.00,WUHU216HW,2013-04-27 00:55:00,
2013-04-27 02:00:00,40.5,34.1,29.75,SW,225,0.0,0.4,78,0.00,,,0.00,WUHU216HW,2013-04-27 01:00:00,
2013-04-27 02:05:00,40.5,34.1,29.75,SW,225,0.0,0.4,78,0.00,,,0.00,WUHU216HW,2013-04-27 01:05:00,
2013-04-27 02:10:00,40.3,33.9,29.75,SW,225,0.2,0.4,78,0.00,,,0.00,WUHU216HW,2013-04-27 01:10:00,
2013-04-27 02:15:00,40.1,33.9,29.75,SW,225,0.4,0.4,78,0.00,,,0.00,WUHU216HW,2013-04-27 01:15:00,
2013-04-27 02:20:00,40.1,34.1,29.75,WSW,248,0.4,0.7,79,0.00,,,0.00,WUHU216HW,2013-04-27 01:20:00,
2013-04-27 02:25:00,40.0,33.9,29.74,WSW,248,0.0,0.7,79,0.00,,,0.00,WUHU216HW,2013-04-27 01:25:00,
2013-04-27 02:30:00,40.0,33.9,29.75,West,270,0.2,0.9,79,0.00,,,0.00,WUHU216HW,2013-04-27 01:30:00,
2013-04-27 02:35:00,40.0,33.9,29.74,WSW,248,0.4,0.9,79,0.00,,,0.00,WUHU216HW,2013-04-27 01:35:00,
2013-04-27 02:40:00,39.8,33.9,29.74,WSW,248,0.2,0.7,79,0.00,,,0.00,WUHU216HW,2013-04-27 01:40:00,
2013-04-27 02:45:00,39.8,33.9,29.74,SSW,203,0.0,0.7,79,0.00,,,0.00,WUHU216HW,2013-04-27 01:45:00,
2013-04-27 02:50:00,39.6,33.7,29.74,SSW,203,0.2,0.4,79,0.00,,,0.00,WUHU216HW,2013-04-27 01:50:00,
2013-04-27 02:55:00,39.6,33.7,29.74,SSW,203,0.0,0.4,79,0.00,,,0.00,WUHU216HW,2013-04-27 01:55:00,
2013-04-27 03:00:00,39.6,33.7,29.75,SSW,203,0.0,0.4,79,0.00,,,0.00,WUHU216HW,2013-04-27 02:00:00,
2013-04-27 03:05:00,39.4,33.5,29.75,SSW,203,0.0,0.2,79,0.00,,,0.00,WUHU216HW,2013-04-27 02:05:00,
2013-04-27 03:10:00,39.4,33.5,29.75,SSW,203,0.0,0.4,79,0.00,,,0.00,WUHU216HW,2013-04-27 02:10:00,
2013-04-27 03:15:00,39.2,33.3,29.75,SW,225,0.0,0.4,79,0.00,,,0.00,WUHU216HW,2013-04-27 02:15:00,
2013-04-27 03:20:00,39.2,33.3,29.75,SW,225,0.4,0.4,79,0.00,,,0.00,WUHU216HW,2013-04-27 02:20:00,
2013-04-27 03:25:00,39.1,33.1,29.75,SW,225,0.4,0.4,79,0.00,,,0.00,WUHU216HW,2013-04-27 02:25:00,
2013-04-27 03:30:00,39.1,33.1,29.75,WSW,248,0.0,0.7,79,0.00,,,0.00,WUHU216HW,2013-04-27 02:30:00,
2013-04-27 03:35:00,38.9,33.3,29.75,SSW,203,0.0,0.7,80,0.00,,,0.00,WUHU216HW,2013-04-27 02:35:00,
2013-04-27 03:40:00,38.9,33.3,29.75,SSW,203,0.0,0.4,80,0.00,,,0.00,WUHU216HW,2013-04-27 02:40:00,
2013-04-27 03:45:00,38.9,33.3,29.75,SSW,203,0.2,0.4,80,0.00,,,0.00,WUHU216HW,2013-04-27 02:45:00,
2013-04-27 03:50:00,38.7,33.1,29.75,SSW,203,0.0,0.4,80,0.00,,,0.00,WUHU216HW,2013-04-27 02:50:00,
2013-04-27 03:55:00,38.7,33.7,29.75,SSW,203,0.2,0.4,82,0.00,,,0.00,WUHU216HW,2013-04-27 02:55:00,
2013-04-27 04:00:00,38.5,33.9,29.74,SW,225,0.0,0.4,83,0.00,,,0.00,WUHU216HW,2013-04-27 03:00:00,
2013-04-27 04:05:00,38.5,33.5,29.74,SW,225,0.0,0.4,82,0.00,,,0.00,WUHU216HW,2013-04-27 03:05:00,
2013-04-27 04:10:00,38.5,33.5,29.74,SW,225,0.2,0.4,82,0.00,,,0.00,WUHU216HW,2013-04-27 03:10:00,
2013-04-27 04:15:00,38.3,33.7,29.74,SW,225,0.2,0.4,83,0.00,,,0.00,WUHU216HW,2013-04-27 03:15:00,
2013-04-27 04:20:00,38.3,33.7,29.74,SW,225,0.2,0.4,83,0.00,,,0.00,WUHU216HW,2013-04-27 03:20:00,
2013-04-27 04:25:00,38.3,33.9,29.74,West,270,0.4,0.4,84,0.00,,,0.00,WUHU216HW,2013-04-27 03:25:00,
2013-04-27 04:30:00,38.3,33.9,29.74,West,270,0.0,0.7,84,0.00,,,0.00,WUHU216HW,2013-04-27 03:30:00,
2013-04-27 04:35:00,38.3,33.9,29.74,West,270,0.0,0.7,84,0.00,,,0.00,WUHU216HW,2013-04-27 03:35:00,
2013-04-27 04:40:00,38.3,34.2,29.74,West,270,0.9,0.9,85,0.00,,,0.00,WUHU216HW,2013-04-27 03:40:00,
2013-04-27 04:45:00,38.5,34.7,29.74,WNW,293,1.1,1.1,86,0.00,,,0.00,WUHU216HW,2013-04-27 03:45:00,
2013-04-27 04:50:00,38.5,34.7,29.74,West,270,0.0,1.1,86,0.00,,,0.00,WUHU216HW,2013-04-27 03:50:00,
2013-04-27 04:55:00,38.7,34.8,29.74,West,270,1.1,1.1,86,0.00,,,0.00,WUHU216HW,2013-04-27 03:55:00,
2013-04-27 05:00:00,38.7,34.6,29.75,West,270,1.1,2.2,85,0.00,,,0.00,WUHU216HW,2013-04-27 04:00:00,
2013-04-27 05:01:00,38.7,34.6,29.75,West,270,1.1,2.2,85,0.00,,,0.00,WUHU216HW,2013-04-27 04:01:00,
2013-04-27 05:06:00,38.5,34.7,29.75,WSW,248,0.4,2.2,86,0.00,,,0.00,WUHU216HW,2013-04-27 04:06:00,
2013-04-27 05:11:00,38.5,34.4,29.75,WNW,293,0.0,1.6,85,0.00,,,0.00,WUHU216HW,2013-04-27 04:11:00,
2013-04-27 05:16:00,38.5,34.7,29.75,WNW,293,0.4,0.9,86,0.00,,,0.00,WUHU216HW,2013-04-27 04:16:00,
2013-04-27 05:21:00,38.5,34.7,29.75,West,270,0.4,0.9,86,0.00,,,0.00,WUHU216HW,2013-04-27 04:21:00,
2013-04-27 05:26:00,38.5,34.7,29.75,West,270,0.4,0.9,86,0.00,,,0.00,WUHU216HW,2013-04-27 04:26:00,
2013-04-27 05:31:00,38.5,34.4,29.75,WNW,293,0.4,1.1,85,0.00,,,0.00,WUHU216HW,2013-04-27 04:31:00,
2013-04-27 05:36:00,38.3,34.2,29.75,West,270,0.4,1.1,85,0.00,,,0.00,WUHU216HW,2013-04-27 04:36:00,
2013-04-27 05:42:00,38.3,34.5,29.76,WNW,293,0.4,0.9,86,0.00,,,0.00,WUHU216HW,2013-04-27 04:42:00,
2013-04-27 05:47:00,38.3,34.5,29.76,West,270,0.7,0.7,86,0.00,,,0.00,WUHU216HW,2013-04-27 04:47:00,
2013-04-27 05:52:00,38.3,34.5,29.75,West,270,0.2,0.7,86,0.00,,,0.00,WUHU216HW,2013-04-27 04:52:00,
2013-04-27 05:57:00,38.3,34.5,29.76,West,270,0.2,0.7,86,0.00,,,0.00,WUHU216HW,2013-04-27 04:57:00,
2013-04-27 06:02:00,38.5,34.9,29.76,West,270,0.4,0.4,87,0.00,,,0.00,WUHU216HW,2013-04-27 05:02:00,
2013-04-27 06:07:00,38.5,34.9,29.76,West,270,0.0,0.4,87,0.00,,,0.00,WUHU216HW,2013-04-27 05:07:00,
2013-04-27 06:12:00,38.7,35.1,29.76,West,270,0.4,0.7,87,0.00,,,0.00,WUHU216HW,2013-04-27 05:12:00,
2013-04-27 06:17:00,38.9,35.3,29.76,West,270,0.2,0.7,87,0.00,,,0.00,WUHU216HW,2013-04-27 05:17:00,
2013-04-27 06:22:00,39.1,35.5,29.76,West,270,0.4,0.7,87,0.00,,,0.00,WUHU216HW,2013-04-27 05:22:00,
2013-04-27 06:27:00,39.2,35.4,29.76,West,270,1.1,1.1,86,0.00,,,0.00,WUHU216HW,2013-04-27 05:27:00,
2013-04-27 06:32:00,39.2,35.4,29.76,West,270,0.2,1.1,86,0.00,,,0.00,WUHU216HW,2013-04-27 05:32:00,
2013-04-27 06:37:00,39.4,35.6,29.76,West,270,1.1,1.1,86,0.00,,,0.00,WUHU216HW,2013-04-27 05:37:00,
2013-04-27 06:42:00,39.6,35.7,29.76,WNW,293,0.7,1.1,86,0.00,,,0.00,WUHU216HW,2013-04-27 05:42:00,
2013-04-27 06:47:00,39.8,35.9,29.76,WNW,293,0.2,2.5,86,0.00,,,0.00,WUHU216HW,2013-04-27 05:47:00,
2013-04-27 06:52:00,40.0,36.1,29.76,NW,315,1.1,2.5,86,0.00,,,0.00,WUHU216HW,2013-04-27 05:52:00,
2013-04-27 06:57:00,40.1,36.3,29.76,NNW,338,1.6,2.7,86,0.00,,,0.00,WUHU216HW,2013-04-27 05:57:00,
2013-04-27 07:02:00,40.3,36.5,29.77,NW,315,1.8,2.9,86,0.00,,,0.00,WUHU216HW,2013-04-27 06:02:00,
2013-04-27 07:07:00,40.5,36.3,29.77,NW,315,2.2,3.1,85,0.00,,,0.00,WUHU216HW,2013-04-27 06:07:00,
2013-04-27 07:12:00,40.9,36.4,29.77,NW,315,1.6,3.1,84,0.00,,,0.00,WUHU216HW,2013-04-27 06:12:00,
2013-04-27 07:17:00,41.2,36.7,29.77,NW,315,2.5,2.5,84,0.00,,,0.00,WUHU216HW,2013-04-27 06:17:00,
2013-04-27 07:22:00,41.4,36.5,29.77,WNW,293,4.3,5.4,83,0.00,,,0.00,WUHU216HW,2013-04-27 06:22:00,
2013-04-27 07:27:00,41.8,36.9,29.77,WNW,293,1.8,6.0,83,0.00,,,0.00,WUHU216HW,2013-04-27 06:27:00,
2013-04-27 07:32:00,42.1,37.0,29.77,NW,315,1.3,6.0,82,0.00,,,0.00,WUHU216HW,2013-04-27 06:32:00,
2013-04-27 07:37:00,42.5,37.0,29.78,NNW,338,2.2,4.0,81,0.00,,,0.00,WUHU216HW,2013-04-27 06:37:00,
2013-04-27 07:42:00,42.1,36.4,29.78,NW,315,2.5,6.0,80,0.00,,,0.00,WUHU216HW,2013-04-27 06:42:00,
2013-04-27 07:47:00,41.8,36.3,29.78,NNW,338,2.2,6.0,81,0.00,,,0.00,WUHU216HW,2013-04-27 06:47:00,
2013-04-27 07:52:00,41.6,35.8,29.78,NW,315,0.2,7.6,80,0.00,,,0.00,WUHU216HW,2013-04-27 06:52:00,
2013-04-27 07:57:00,41.8,35.6,29.78,NW,315,6.3,7.6,79,0.00,,,0.00,WUHU216HW,2013-04-27 06:57:00,
2013-04-27 08:02:00,41.9,35.2,29.78,North,0,0.4,7.6,77,0.00,,,0.00,WUHU216HW,2013-04-27 07:02:00,
2013-04-27 08:07:00,41.9,35.6,29.78,NW,315,1.6,6.9,78,0.00,,,0.00,WUHU216HW,2013-04-27 07:07:00,
2013-04-27 08:12:00,42.1,35.7,29.78,NW,315,3.4,5.4,78,0.00,,,0.00,WUHU216HW,2013-04-27 07:12:00,
2013-04-27 08:17:00,42.5,35.7,29.79,NW,315,3.4,6.5,77,0.00,,,0.00,WUHU216HW,2013-04-27 07:17:00,
2013-04-27 08:22:00,42.8,35.8,29.78,WNW,293,3.4,6.5,76,0.00,,,0.00,WUHU216HW,2013-04-27 07:22:00,
2013-04-27 08:27:00,43.0,36.3,29.79,NNW,338,3.1,6.7,77,0.00,,,0.00,WUHU216HW,2013-04-27 07:27:00,
2013-04-27 08:32:00,43.6,36.8,29.79,WNW,293,2.5,6.7,77,0.00,,,0.00,WUHU216HW,2013-04-27 07:32:00,
2013-04-27 08:37:00,44.1,36.6,29.79,West,270,0.7,6.7,75,0.00,,,0.00,WUHU216HW,2013-04-27 07:37:00,
2013-04-27 08:42:00,43.9,36.5,29.79,WNW,293,0.9,7.8,75,0.00,,,0.00,WUHU216HW,2013-04-27 07:42:00,
2013-04-27 08:47:00,43.6,36.8,29.79,North,0,0.2,7.8,77,0.00,,,0.00,WUHU216HW,2013-04-27 07:47:00,
2013-04-27 08:52:00,43.6,36.2,29.79,NW,315,1.1,6.9,75,0.00,,,0.00,WUHU216HW,2013-04-27 07:52:00,
2013-04-27 08:57:00,43.9,36.8,29.80,West,270,4.0,4.7,76,0.00,,,0.00,WUHU216HW,2013-04-27 07:57:00,
2013-04-27 09:02:00,44.1,37.0,29.80,NW,315,3.4,6.0,76,0.00,,,0.00,WUHU216HW,2013-04-27 08:02:00,
2013-04-27 09:07:00,44.5,36.6,29.80,WNW,293,3.4,7.6,74,0.00,,,0.00,WUHU216HW,2013-04-27 08:07:00,
2013-04-27 09:12:00,44.1,36.6,29.80,NNW,338,4.7,7.6,75,0.00,,,0.00,WUHU216HW,2013-04-27 08:12:00,
2013-04-27 09:17:00,43.7,36.0,29.80,WNW,293,3.8,6.9,74,0.00,,,0.00,WUHU216HW,2013-04-27 08:17:00,
2013-04-27 09:22:00,43.9,36.2,29.81,WNW,293,3.8,6.9,74,0.00,,,0.00,WUHU216HW,2013-04-27 08:22:00,
2013-04-27 09:27:00,44.3,36.5,29.81,NW,315,4.9,6.9,74,0.00,,,0.00,WUHU216HW,2013-04-27 08:27:00,
2013-04-27 09:32:00,45.0,37.2,29.81,WNW,293,0.4,9.8,74,0.00,,,0.00,WUHU216HW,2013-04-27 08:32:00,
2013-04-27 09:37:00,45.0,37.2,29.81,NNW,338,1.6,9.8,74,0.00,,,0.00,WUHU216HW,2013-04-27 08:37:00,
2013-04-27 09:42:00,45.4,36.9,29.81,NW,315,5.4,7.6,72,0.00,,,0.00,WUHU216HW,2013-04-27 08:42:00,
2013-04-27 09:47:00,45.2,36.7,29.81,NNW,338,2.5,5.8,72,0.00,,,0.00,WUHU216HW,2013-04-27 08:47:00,
2013-04-27 09:52:00,45.0,36.6,29.81,ENE,68,0.4,7.6,72,0.00,,,0.00,WUHU216HW,2013-04-27 08:52:00,
2013-04-27 09:57:00,44.8,36.4,29.81,NNE,23,0.2,7.6,72,0.00,,,0.00,WUHU216HW,2013-04-27 08:57:00,
2013-04-27 10:02:00,45.4,36.6,29.80,NNW,338,5.6,5.6,71,0.00,,,0.00,WUHU216HW,2013-04-27 09:02:00,
2013-04-27 10:07:00,46.1,36.9,29.81,North,0,3.8,6.9,70,0.00,,,0.00,WUHU216HW,2013-04-27 09:07:00,
2013-04-27 10:12:00,45.2,36.4,29.81,North,0,1.3,6.9,71,0.00,,,0.00,WUHU216HW,2013-04-27 09:12:00,
2013-04-27 10:17:00,45.0,36.6,29.81,NNW,338,1.6,6.9,72,0.00,,,0.00,WUHU216HW,2013-04-27 09:17:00,
2013-04-27 10:22:00,44.8,36.4,29.81,NNW,338,4.7,6.9,72,0.00,,,0.00,WUHU216HW,2013-04-27 09:22:00,
2013-04-27 10:27:00,44.8,36.4,29.81,NW,315,0.9,6.7,72,0.00,,,0.00,WUHU216HW,2013-04-27 09:27:00,
2013-04-27 10:32:00,45.0,36.6,29.81,NW,315,4.0,6.3,72,0.00,,,0.00,WUHU216HW,2013-04-27 09:32:00,
2013-04-27 10:37:00,45.4,36.6,29.81,NW,315,4.7,7.2,71,0.00,,,0.00,WUHU216HW,2013-04-27 09:37:00,
2013-04-27 10:42:00,45.7,36.2,29.81,NNE,23,4.5,7.2,69,0.00,,,0.00,WUHU216HW,2013-04-27 09:42:00,
2013-04-27 10:47:00,45.2,36.0,29.81,NW,315,4.9,6.7,70,0.00,,,0.00,WUHU216HW,2013-04-27 09:47:00,
2013-04-27 10:52:00,45.0,36.2,29.81,NW,315,4.0,6.7,71,0.00,,,0.00,WUHU216HW,2013-04-27 09:52:00,
2013-04-27 10:57:00,45.2,36.4,29.81,NW,315,4.0,4.7,71,0.00,,,0.00,WUHU216HW,2013-04-27 09:57:00,
2013-04-27 11:02:00,45.4,36.6,29.82,NNE,23,0.7,4.3,71,0.00,,,0.00,WUHU216HW,2013-04-27 10:02:00,
2013-04-27 11:07:00,45.4,36.2,29.82,NNW,338,5.1,5.4,70,0.00,,,0.00,WUHU216HW,2013-04-27 10:07:00,
2013-04-27 11:12:00,45.7,36.5,29.82,West,270,1.3,7.8,70,0.00,,,0.00,WUHU216HW,2013-04-27 10:12:00,
2013-04-27 11:17:00,45.5,36.4,29.82,North,0,0.4,7.8,70,0.00,,,0.00,WUHU216HW,2013-04-27 10:17:00,
2013-04-27 11:22:00,45.5,37.1,29.83,North,0,3.4,7.6,72,0.00,,,0.00,WUHU216HW,2013-04-27 10:22:00,
2013-04-27 11:27:00,45.0,36.6,29.83,NW,315,4.7,5.8,72,0.00,,,0.00,WUHU216HW,2013-04-27 10:27:00,
2013-04-27 11:32:00,45.0,36.8,29.83,NNW,338,2.5,5.8,73,0.00,,,0.00,WUHU216HW,2013-04-27 10:32:00,
2013-04-27 11:37:00,45.2,36.7,29.83,NNW,338,2.9,5.4,72,0.00,,,0.00,WUHU216HW,2013-04-27 10:37:00,
2013-04-27 11:42:00,46.1,37.3,29.83,ENE,68,0.2,3.1,71,0.00,,,0.00,WUHU216HW,2013-04-27 10:42:00,
2013-04-27 11:47:00,47.3,37.3,29.82,West,270,0.7,2.9,68,0.00,,,0.00,WUHU216HW,2013-04-27 10:47:00,
2013-04-27 11:52:00,48.2,36.3,29.82,SW,225,0.7,2.5,63,0.00,,,0.00,WUHU216HW,2013-04-27 10:52:00,
2013-04-27 11:57:00,48.2,35.8,29.82,NW,315,4.5,4.9,62,0.00,,,0.00,WUHU216HW,2013-04-27 10:57:00,
2013-04-27 12:02:00,47.5,35.9,29.82,NW,315,3.6,4.9,64,0.00,,,0.00,WUHU216HW,2013-04-27 11:02:00,
2013-04-27 12:07:00,47.2,36.0,29.83,NW,315,1.1,5.4,65,0.00,,,0.00,WUHU216HW,2013-04-27 11:07:00,
2013-04-27 12:12:00,46.8,36.0,29.83,ESE,113,0.7,5.4,66,0.00,,,0.00,WUHU216HW,2013-04-27 11:12:00,
2013-04-27 12:17:00,46.8,36.8,29.83,WNW,293,1.8,6.7,68,0.00,,,0.00,WUHU216HW,2013-04-27 11:17:00,
2013-04-27 12:22:00,45.4,38.6,29.83,NNW,338,4.3,13.0,77,0.00,,,0.00,WUHU216HW,2013-04-27 11:22:00,
2013-04-27 12:27:00,44.3,38.2,29.84,NW,315,2.0,13.0,79,0.00,,,0.00,WUHU216HW,2013-04-27 11:27:00,
2013-04-27 12:32:00,44.5,39.3,29.83,NNW,338,3.4,5.6,82,0.00,,,0.00,WUHU216HW,2013-04-27 11:32:00,
2013-04-27 12:37:00,45.0,39.5,29.83,NNW,338,2.5,4.9,81,0.00,,,0.00,WUHU216HW,2013-04-27 11:37:00,
2013-04-27 12:42:00,46.1,40.3,29.83,NNE,23,1.8,4.9,80,0.00,,,0.00,WUHU216HW,2013-04-27 11:42:00,
2013-04-27 12:47:00,46.8,40.0,29.83,West,270,4.3,8.3,77,0.00,,,0.00,WUHU216HW,2013-04-27 11:47:00,
2013-04-27 12:52:00,46.4,38.3,29.83,West,270,1.3,8.3,73,0.00,,,0.00,WUHU216HW,2013-04-27 11:52:00,
2013-04-27 12:57:00,46.4,39.0,29.83,West,270,0.2,6.7,75,0.00,,,0.00,WUHU216HW,2013-04-27 11:57:00,
2013-04-27 13:02:00,46.4,38.0,29.84,West,270,1.8,6.9,72,0.00,,,0.00,WUHU216HW,2013-04-27 12:02:00,
2013-04-27 13:07:00,45.7,38.3,29.84,WNW,293,2.7,6.9,75,0.00,,,0.00,WUHU216HW,2013-04-27 12:07:00,
2013-04-27 13:12:00,45.7,39.2,29.84,East,90,0.4,4.7,78,0.00,,,0.00,WUHU216HW,2013-04-27 12:12:00,
2013-04-27 13:17:00,46.1,39.3,29.84,WNW,293,2.0,2.9,77,0.00,,,0.00,WUHU216HW,2013-04-27 12:17:00,
2013-04-27 13:22:00,46.4,39.0,29.84,NW,315,6.3,6.3,75,0.00,,,0.00,WUHU216HW,2013-04-27 12:22:00,
2013-04-27 13:27:00,46.6,38.8,29.83,WNW,293,5.6,6.3,74,0.00,,,0.00,WUHU216HW,2013-04-27 12:27:00,
2013-04-27 13:32:00,46.8,38.6,29.84,NW,315,4.0,6.7,73,0.00,,,0.00,WUHU216HW,2013-04-27 12:32:00,
2013-04-27 13:37:00,47.5,38.6,29.83,NNW,338,2.0,6.7,71,0.00,,,0.00,WUHU216HW,2013-04-27 12:37:00,
2013-04-27 13:42:00,48.2,38.5,29.83,SW,225,0.4,5.1,69,0.00,,,0.00,WUHU216HW,2013-04-27 12:42:00,
2013-04-27 13:47:00,48.2,37.4,29.83,SSE,158,0.4,5.1,66,0.00,,,0.00,WUHU216HW,2013-04-27 12:47:00,
2013-04-27 13:52:00,47.5,37.9,29.83,West,270,0.4,5.1,69,0.00,,,0.00,WUHU216HW,2013-04-27 12:52:00,
2013-04-27 13:57:00,47.5,38.9,29.83,ENE,68,0.7,5.1,72,0.00,,,0.00,WUHU216HW,2013-04-27 12:57:00,
2013-04-27 14:02:00,48.1,39.4,29.83,NNW,338,2.2,3.6,72,0.00,,,0.00,WUHU216HW,2013-04-27 13:02:00,
2013-04-27 14:07:00,48.8,38.6,29.83,North,0,2.7,9.2,68,0.00,,,0.00,WUHU216HW,2013-04-27 13:07:00,
2013-04-27 14:12:00,48.4,37.9,29.83,West,270,1.8,9.2,67,0.00,,,0.00,WUHU216HW,2013-04-27 13:12:00,
2013-04-27 14:17:00,48.4,37.9,29.83,SE,135,0.7,5.6,67,0.00,,,0.00,WUHU216HW,2013-04-27 13:17:00,
2013-04-27 14:22:00,48.4,36.8,29.83,NNW,338,3.6,8.7,64,0.00,,,0.00,WUHU216HW,2013-04-27 13:22:00,
2013-04-27 14:27:00,48.1,37.6,29.83,NNW,338,5.6,8.7,67,0.00,,,0.00,WUHU216HW,2013-04-27 13:27:00,
2013-04-27 14:32:00,48.6,37.7,29.83,NNW,338,1.8,7.4,66,0.00,,,0.00,WUHU216HW,2013-04-27 13:32:00,
2013-04-27 14:37:00,49.0,37.7,29.83,ESE,113,2.5,5.6,65,0.00,,,0.00,WUHU216HW,2013-04-27 13:37:00,
2013-04-27 14:42:00,49.9,38.2,29.83,North,0,2.9,4.5,64,0.00,,,0.00,WUHU216HW,2013-04-27 13:42:00,
2013-04-27 14:48:00,49.5,39.3,29.83,West,270,4.0,9.8,68,0.00,,,0.00,WUHU216HW,2013-04-27 13:48:00,
2013-04-27 14:53:00,48.4,38.7,29.83,North,0,4.3,6.9,69,0.00,,,0.00,WUHU216HW,2013-04-27 13:53:00,
2013-04-27 14:58:00,47.7,38.7,29.83,SSW,203,0.4,7.8,71,0.00,,,0.00,WUHU216HW,2013-04-27 13:58:00,
2013-04-27 15:03:00,47.9,38.9,29.83,NNW,338,0.7,7.8,71,0.00,,,0.00,WUHU216HW,2013-04-27 14:03:00,
2013-04-27 15:08:00,47.5,37.9,29.83,NNE,23,4.7,4.7,69,0.00,,,0.00,WUHU216HW,2013-04-27 14:08:00,
2013-04-27 15:13:00,47.7,38.0,29.83,WNW,293,0.4,4.7,69,0.00,,,0.00,WUHU216HW,2013-04-27 14:13:00,
2013-04-27 15:18:00,48.2,38.5,29.83,East,90,4.3,4.7,69,0.00,,,0.00,WUHU216HW,2013-04-27 14:18:00,
2013-04-27 15:23:00,49.0,37.7,29.83,SW,225,0.2,4.9,65,0.00,,,0.00,WUHU216HW,2013-04-27 14:23:00,
2013-04-27 15:28:00,49.9,38.2,29.83,SE,135,2.5,4.9,64,0.00,,,0.00,WUHU216HW,2013-04-27 14:28:00,
2013-04-27 15:33:00,50.4,38.6,29.83,SE,135,0.4,5.4,64,0.00,,,0.00,WUHU216HW,2013-04-27 14:33:00,
2013-04-27 15:38:00,49.9,37.7,29.83,NW,315,3.4,5.8,63,0.00,,,0.00,WUHU216HW,2013-04-27 14:38:00,
2013-04-27 15:43:00,48.6,36.5,29.83,NW,315,5.6,8.1,63,0.00,,,0.00,WUHU216HW,2013-04-27 14:43:00,
2013-04-27 15:48:00,49.0,37.3,29.83,NW,315,3.4,8.1,64,0.00,,,0.00,WUHU216HW,2013-04-27 14:48:00,
2013-04-27 15:53:00,49.3,36.5,29.83,NW,315,4.7,6.9,61,0.00,,,0.00,WUHU216HW,2013-04-27 14:53:00,
2013-04-27 15:58:00,49.7,36.8,29.83,SE,135,1.8,6.3,61,0.00,,,0.00,WUHU216HW,2013-04-27 14:58:00,
2013-04-27 16:03:00,50.2,37.3,29.83,West,270,4.7,6.3,61,0.00,,,0.00,WUHU216HW,2013-04-27 15:03:00,
2013-04-27 16:08:00,50.8,37.4,29.83,ESE,113,0.4,6.9,60,0.00,,,0.00,WUHU216HW,2013-04-27 15:08:00,
2013-04-27 16:13:00,51.1,37.7,29.83,West,270,0.9,6.9,60,0.00,,,0.00,WUHU216HW,2013-04-27 15:13:00,
2013-04-27 16:18:00,51.1,37.7,29.83,ENE,68,1.6,4.7,60,0.00,,,0.00,WUHU216HW,2013-04-27 15:18:00,
2013-04-27 16:23:00,50.8,36.5,29.83,North,0,4.5,4.7,58,0.00,,,0.00,WUHU216HW,2013-04-27 15:23:00,
2013-04-27 16:28:00,50.4,36.2,29.83,NNE,23,1.8,4.7,58,0.00,,,0.00,WUHU216HW,2013-04-27 15:28:00,
2013-04-27 16:33:00,50.4,36.6,29.83,NW,315,6.7,7.4,59,0.00,,,0.00,WUHU216HW,2013-04-27 15:33:00,
2013-04-27 16:38:00,50.9,37.1,29.83,NW,315,2.5,7.4,59,0.00,,,0.00,WUHU216HW,2013-04-27 15:38:00,
2013-04-27 16:43:00,51.1,36.8,29.83,NW,315,4.7,6.7,58,0.00,,,0.00,WUHU216HW,2013-04-27 15:43:00,
2013-04-27 16:48:00,51.1,37.7,29.83,WNW,293,3.4,6.3,60,0.00,,,0.00,WUHU216HW,2013-04-27 15:48:00,
2013-04-27 16:53:00,50.9,38.0,29.83,North,0,1.8,8.1,61,0.00,,,0.00,WUHU216HW,2013-04-27 15:53:00,
2013-04-27 16:58:00,51.5,36.6,29.83,ENE,68,4.9,8.1,57,0.00,,,0.00,WUHU216HW,2013-04-27 15:58:00,
2013-04-27 17:03:00,51.5,36.6,29.84,West,270,2.0,9.2,57,0.00,,,0.00,WUHU216HW,2013-04-27 16:03:00,
2013-04-27 17:08:00,50.9,36.6,29.84,SSE,158,1.1,9.2,58,0.00,,,0.00,WUHU216HW,2013-04-27 16:08:00,
2013-04-27 17:13:00,50.6,35.4,29.84,SE,135,0.4,3.1,56,0.00,,,0.00,WUHU216HW,2013-04-27 16:13:00,
2013-04-27 17:18:00,50.2,35.6,29.84,East,90,0.2,2.5,57,0.00,,,0.00,WUHU216HW,2013-04-27 16:18:00,
2013-04-27 17:23:00,50.4,36.2,29.84,ESE,113,0.9,3.4,58,0.00,,,0.00,WUHU216HW,2013-04-27 16:23:00,
2013-04-27 17:28:00,50.9,36.6,29.84,NNE,23,1.1,3.4,58,0.00,,,0.00,WUHU216HW,2013-04-27 16:28:00,
2013-04-27 17:33:00,51.1,35.0,29.84,SE,135,2.0,6.9,54,0.00,,,0.00,WUHU216HW,2013-04-27 16:33:00,
2013-04-27 17:38:00,50.6,34.9,29.85,ENE,68,3.1,9.8,55,0.00,,,0.00,WUHU216HW,2013-04-27 16:38:00,
2013-04-27 17:43:00,50.4,35.7,29.85,SSE,158,0.4,9.8,57,0.00,,,0.00,WUHU216HW,2013-04-27 16:43:00,
2013-04-27 17:48:00,50.0,36.3,29.85,SE,135,0.4,6.0,59,0.00,,,0.00,WUHU216HW,2013-04-27 16:48:00,
2013-04-27 17:53:00,50.0,35.8,29.85,NW,315,0.0,2.5,58,0.00,,,0.00,WUHU216HW,2013-04-27 16:53:00,
2013-04-27 17:58:00,50.6,35.8,29.85,NE,45,1.8,5.1,57,0.00,,,0.00,WUHU216HW,2013-04-27 16:58:00,
2013-04-27 18:03:00,50.4,38.6,29.86,SSW,203,2.5,5.1,64,0.00,,,0.00,WUHU216HW,2013-04-27 17:03:00,
2013-04-27 18:08:00,49.7,39.2,29.86,NW,315,1.1,4.9,67,0.01,,,0.01,WUHU216HW,2013-04-27 17:08:00,
2013-04-27 18:13:00,49.0,38.1,29.86,ESE,113,2.5,2.5,66,0.01,,,0.01,WUHU216HW,2013-04-27 17:13:00,
2013-04-27 18:18:00,48.6,37.7,29.86,NE,45,0.0,2.5,66,0.01,,,0.01,WUHU216HW,2013-04-27 17:18:00,
2013-04-27 18:23:00,48.8,37.9,29.86,ENE,68,0.7,2.5,66,0.01,,,0.01,WUHU216HW,2013-04-27 17:23:00,
2013-04-27 18:28:00,49.0,36.9,29.86,South,180,2.7,5.6,63,0.01,,,0.01,WUHU216HW,2013-04-27 17:28:00,
2013-04-27 18:33:00,49.3,37.3,29.86,ESE,113,0.4,5.6,63,0.01,,,0.01,WUHU216HW,2013-04-27 17:33:00,
2013-04-27 18:38:00,49.5,37.5,29.87,ENE,68,4.7,10.5,63,0.01,,,0.01,WUHU216HW,2013-04-27 17:38:00,
2013-04-27 18:43:00,49.3,37.6,29.87,ENE,68,7.6,10.5,64,0.01,,,0.01,WUHU216HW,2013-04-27 17:43:00,
2013-04-27 18:48:00,49.0,37.3,29.88,ESE,113,1.8,8.3,64,0.01,,,0.01,WUHU216HW,2013-04-27 17:48:00,
2013-04-27 18:53:00,47.5,37.4,29.88,NNW,338,6.9,8.9,68,0.01,,,0.01,WUHU216HW,2013-04-27 17:53:00,
2013-04-27 18:58:00,45.7,37.5,29.88,WNW,293,0.7,8.9,73,0.01,,,0.01,WUHU216HW,2013-04-27 17:58:00,
2013-04-27 19:03:00,45.4,37.5,29.88,NW,315,0.4,7.8,74,0.01,,,0.01,WUHU216HW,2013-04-27 18:03:00,
2013-04-27 19:08:00,45.4,37.9,29.88,WNW,293,0.0,1.8,75,0.00,,,0.01,WUHU216HW,2013-04-27 18:08:00,
2013-04-27 19:13:00,45.5,38.8,29.88,East,90,1.1,1.1,77,0.00,,,0.01,WUHU216HW,2013-04-27 18:13:00,
2013-04-27 19:18:00,45.9,39.2,29.89,ESE,113,0.0,2.5,77,0.00,,,0.01,WUHU216HW,2013-04-27 18:18:00,
2013-04-27 19:23:00,46.1,39.3,29.89,NNW,338,1.6,3.6,77,0.00,,,0.01,WUHU216HW,2013-04-27 18:23:00,
2013-04-27 19:28:00,46.4,39.0,29.89,NE,45,0.4,3.6,75,0.00,,,0.01,WUHU216HW,2013-04-27 18:28:00,
2013-04-27 19:33:00,46.4,38.6,29.89,ESE,113,1.1,2.0,74,0.00,,,0.01,WUHU216HW,2013-04-27 18:33:00,
2013-04-27 19:38:00,46.4,38.0,29.89,ESE,113,2.0,8.1,72,0.00,,,0.01,WUHU216HW,2013-04-27 18:38:00,
2013-04-27 19:43:00,46.3,37.8,29.89,ESE,113,3.6,8.1,72,0.00,,,0.01,WUHU216HW,2013-04-27 18:43:00,
2013-04-27 19:48:00,46.1,37.6,29.89,East,90,0.4,6.9,72,0.00,,,0.01,WUHU216HW,2013-04-27 18:48:00,
2013-04-27 19:53:00,46.1,37.9,29.89,ENE,68,2.5,6.0,73,0.00,,,0.01,WUHU216HW,2013-04-27 18:53:00,
2013-04-27 19:58:00,45.9,37.7,29.89,NE,45,0.4,2.5,73,0.00,,,0.01,WUHU216HW,2013-04-27 18:58:00,
2013-04-27 20:03:00,45.7,37.3,29.89,ENE,68,1.1,2.0,72,0.00,,,0.01,WUHU216HW,2013-04-27 19:03:00,
2013-04-27 20:08:00,45.7,37.5,29.90,ENE,68,0.2,1.8,73,0.00,,,0.01,WUHU216HW,2013-04-27 19:08:00,
2013-04-27 20:13:00,45.5,37.4,29.90,ENE,68,0.0,1.8,73,0.00,,,0.01,WUHU216HW,2013-04-27 19:13:00,
2013-04-27 20:18:00,45.4,37.5,29.91,NNE,23,0.0,0.4,74,0.00,,,0.01,WUHU216HW,2013-04-27 19:18:00,
2013-04-27 20:23:00,45.0,37.2,29.91,NW,315,0.0,1.1,74,0.00,,,0.01,WUHU216HW,2013-04-27 19:23:00,
2013-04-27 20:28:00,44.8,37.0,29.91,NW,315,0.2,1.1,74,0.00,,,0.01,WUHU216HW,2013-04-27 19:28:00,
2013-04-27 20:33:00,44.5,36.4,29.91,NNW,338,0.7,1.6,73,0.00,,,0.01,WUHU216HW,2013-04-27 19:33:00,
2013-04-27 20:38:00,44.3,35.8,29.91,NNW,338,0.7,2.5,72,0.00,,,0.01,WUHU216HW,2013-04-27 19:38:00,
2013-04-27 20:43:00,44.3,35.5,29.91,NW,315,0.4,2.5,71,0.00,,,0.01,WUHU216HW,2013-04-27 19:43:00,
2013-04-27 20:48:00,44.3,35.5,29.92,NW,315,0.2,1.3,71,0.00,,,0.01,WUHU216HW,2013-04-27 19:48:00,
2013-04-27 20:53:00,44.3,35.1,29.92,WNW,293,0.7,1.1,70,0.00,,,0.01,WUHU216HW,2013-04-27 19:53:00,
2013-04-27 20:58:00,44.3,35.1,29.92,NW,315,0.0,1.3,70,0.00,,,0.01,WUHU216HW,2013-04-27 19:58:00,
2013-04-27 21:03:00,44.3,35.1,29.93,NW,315,0.0,1.3,70,0.00,,,0.01,WUHU216HW,2013-04-27 20:03:00,
2013-04-27 21:08:00,44.1,35.3,29.92,NW,315,0.0,0.2,71,0.00,,,0.01,WUHU216HW,2013-04-27 20:08:00,
2013-04-27 21:13:00,43.9,35.2,29.92,SW,225,0.0,1.6,71,0.00,,,0.01,WUHU216HW,2013-04-27 20:13:00,
2013-04-27 21:18:00,43.9,35.5,29.93,WNW,293,0.9,2.0,72,0.00,,,0.01,WUHU216HW,2013-04-27 20:18:00,
2013-04-27 21:23:00,44.1,35.6,29.93,NW,315,0.2,2.2,72,0.00,,,0.01,WUHU216HW,2013-04-27 20:23:00,
2013-04-27 21:28:00,43.9,35.8,29.93,NW,315,0.4,2.2,73,0.00,,,0.01,WUHU216HW,2013-04-27 20:28:00,
2013-04-27 21:33:00,43.9,36.2,29.93,NW,315,1.1,2.5,74,0.00,,,0.01,WUHU216HW,2013-04-27 20:33:00,
2013-04-27 21:38:00,43.6,35.5,29.93,NW,315,0.4,2.5,73,0.00,,,0.01,WUHU216HW,2013-04-27 20:38:00,
2013-04-27 21:43:00,43.6,35.8,29.93,West,270,0.4,1.8,74,0.00,,,0.01,WUHU216HW,2013-04-27 20:43:00,
2013-04-27 21:48:00,43.2,35.8,29.94,NNW,338,0.4,1.8,75,0.00,,,0.01,WUHU216HW,2013-04-27 20:48:00,
2013-04-27 21:53:00,43.2,36.1,29.94,NNW,338,0.0,3.4,76,0.00,,,0.01,WUHU216HW,2013-04-27 20:53:00,
2013-04-27 21:58:00,43.0,36.0,29.94,NNW,338,0.7,3.4,76,0.00,,,0.01,WUHU216HW,2013-04-27 20:58:00,
2013-04-27 22:03:00,43.0,36.3,29.94,NW,315,0.2,1.1,77,0.00,,,0.01,WUHU216HW,2013-04-27 21:03:00,
2013-04-27 22:08:00,42.8,36.1,29.94,NW,315,0.4,1.1,77,0.00,,,0.01,WUHU216HW,2013-04-27 21:08:00,
2013-04-27 22:13:00,42.7,36.3,29.94,West,270,0.0,1.1,78,0.00,,,0.01,WUHU216HW,2013-04-27 21:13:00,
2013-04-27 22:18:00,42.5,36.4,29.94,WNW,293,0.0,0.4,79,0.00,,,0.01,WUHU216HW,2013-04-27 21:18:00,
2013-04-27 22:23:00,42.5,36.4,29.94,WNW,293,0.2,0.9,79,0.00,,,0.01,WUHU216HW,2013-04-27 21:23:00,
2013-04-27 22:28:00,42.3,36.2,29.94,West,270,0.4,0.9,79,0.00,,,0.01,WUHU216HW,2013-04-27 21:28:00,
2013-04-27 22:33:00,42.1,36.0,29.95,ESE,113,0.0,0.7,79,0.00,,,0.01,WUHU216HW,2013-04-27 21:33:00,
2013-04-27 22:38:00,42.1,36.4,29.95,NW,315,0.4,0.7,80,0.00,,,0.01,WUHU216HW,2013-04-27 21:38:00,
2013-04-27 22:43:00,42.1,36.0,29.95,WNW,293,0.0,0.7,79,0.00,,,0.01,WUHU216HW,2013-04-27 21:43:00,
2013-04-27 22:48:00,41.9,35.8,29.95,WNW,293,0.0,0.4,79,0.00,,,0.01,WUHU216HW,2013-04-27 21:48:00,
2013-04-27 22:53:00,41.8,35.6,29.95,WNW,293,0.0,0.2,79,0.00,,,0.01,WUHU216HW,2013-04-27 21:53:00,
2013-04-27 22:58:00,41.6,35.8,29.95,WNW,293,0.0,0.2,80,0.00,,,0.01,WUHU216HW,2013-04-27 21:58:00,
2013-04-27 23:03:00,41.4,35.9,29.95,WNW,293,0.0,0.4,81,0.00,,,0.01,WUHU216HW,2013-04-27 22:03:00,
2013-04-27 23:08:00,41.4,35.9,29.96,WNW,293,0.0,0.4,81,0.00,,,0.01,WUHU216HW,2013-04-27 22:08:00,
2013-04-27 23:13:00,41.2,35.7,29.96,NW,315,0.0,0.7,81,0.00,,,0.01,WUHU216HW,2013-04-27 22:13:00,
2013-04-27 23:18:00,41.2,35.7,29.95,NW,315,0.0,1.6,81,0.00,,,0.01,WUHU216HW,2013-04-27 22:18:00,
2013-04-27 23:23:00,41.0,35.6,29.96,NW,315,0.0,1.6,81,0.00,,,0.01,WUHU216HW,2013-04-27 22:23:00,
2013-04-27 23:28:00,41.0,35.6,29.96,NW,315,0.0,1.3,81,0.00,,,0.01,WUHU216HW,2013-04-27 22:28:00,
2013-04-27 23:33:00,40.9,35.5,29.96,NW,315,0.0,0.2,81,0.00,,,0.01,WUHU216HW,2013-04-27 22:33:00,
2013-04-27 23:38:00,40.7,35.3,29.96,NW,315,0.0,0.2,81,0.00,,,0.01,WUHU216HW,2013-04-27 22:38:00,
2013-04-27 23:43:00,40.7,35.3,29.96,NW,315,0.4,0.4,81,0.00,,,0.01,WUHU216HW,2013-04-27 22:43:00,
2013-04-27 23:48:00,40.5,35.1,29.96,NW,315,0.0,0.9,81,0.00,,,0.01,WUHU216HW,2013-04-27 22:48:00,
2013-04-27 23:53:00,40.5,35.1,29.96,NW,315,0.4,0.9,81,0.00,,,0.01,WUHU216HW,2013-04-27 22:53:00,
2013-04-27 23:58:00,40.1,34.7,29.96,NW,315,0.0,0.9,81,0.00,,,0.01,WUHU216HW,2013-04-27 22:58:00,